Location: Krzykow
(51.1188°N, 17.7112°E)
Time: 03:15:13
(UTC+02:00)

ISS - Visible Passes

Search period start: 23 September 2018 00:00
Search period end: 03 October 2018 00:00
Orbit: 403 x 408 km, 51.6° (Epoch: 23 September)

Date Brightness Start Highest point End Pass type
(mag) Time Alt. Az. Time Alt. Az. Time Alt. Az.
23 Sep -1.8 19:36:58 10° S 19:38:41 13° SE 19:39:38 12° ESE visible
23 Sep -1.5 21:11:25 10° SW 21:12:21 17° SW 21:12:21 17° SW visible
24 Sep -3.2 20:19:46 10° SW 20:22:50 36° SSE 20:22:54 36° SSE visible
25 Sep -2.5 19:28:20 10° SSW 19:31:05 24° SE 19:33:18 13° E visible
25 Sep -2.4 21:03:59 10° WSW 21:06:00 34° WSW 21:06:00 34° WSW visible
26 Sep -3.7 20:12:08 10° WSW 20:15:24 59° SSE 20:16:15 41° ESE visible
26 Sep -0.6 21:48:34 10° W 21:48:56 13° W 21:48:56 13° W visible
27 Sep -3.2 19:20:24 10° SW 19:23:32 41° SSE 19:26:26 12° E visible
27 Sep -2.9 20:56:37 10° W 20:59:06 48° W 20:59:06 48° W visible
28 Sep -3.9 20:04:40 10° WSW 20:07:59 84° SSE 20:09:12 36° E visible
28 Sep -0.8 21:41:14 10° W 21:41:52 15° W 21:41:52 15° W visible
29 Sep -3.7 19:12:46 10° WSW 19:16:02 67° SSE 19:19:14 11° E visible
29 Sep -3.1 20:49:15 10° W 20:51:54 54° WNW 20:51:54 54° WNW visible
30 Sep -3.8 19:57:15 10° W 20:00:34 81° N 20:01:54 33° E visible
30 Sep -0.8 21:33:49 10° W 21:34:34 16° W 21:34:34 16° W visible
01 Oct -3.8 19:05:16 10° W 19:08:34 90° WSW 19:11:53 10° E visible
01 Oct -3.2 20:41:49 10° W 20:44:32 57° WNW 20:44:32 57° WNW visible
02 Oct -3.8 19:49:49 10° W 19:53:07 81° N 19:54:30 32° E visible
02 Oct -0.9 21:26:21 10° W 21:27:09 16° W 21:27:09 16° W visible
